Weather History for Elefsis, Greece

Change the Weather History Date:

Thursday, November 8, 2012

  Actual Average Record
Temperature  
Mean Temperature 56 °F -  
Max Temperature 60 °F 61 °F 77 °F (2000)
Min Temperature 53 °F 47 °F 46 °F (2006)
Degree Days  
Heating Degree Days 8    
Growing Degree Days 6 (Base 50)    
Moisture  
Dew Point 45 °F    
Average Humidity 66    
Maximum Humidity 77    
Minimum Humidity 48    
Precipitation  
Precipitation 0.00 in - - ()
Sea Level Pressure  
Sea Level Pressure 30.06 in    
Wind  
Wind Speed 14 mph ()    
Max Wind Speed 28 mph    
Max Gust Speed 43 mph    
Visibility 6.0 miles    
Events Rain    
Averages and records for this station are not official NWS values.
T = Trace of Precipitation, MM = Missing Value Source: Averaged Metar Reports

Daily Weather History Graph

Daily Weather History Graph

Search for Another Location

Airport:

Trip Planner

Search our weather history database for the weather conditions in past years. The results will help you decide how hot, cold, wet, or windy it might be!

Date:

Astronomy

Nov. 08, 2012 Rise Set
Actual Time 6:59 AM EET 5:19 PM EET
Civil Twilight 6:31 AM EET 5:47 PM EET
Nautical Twilight 6:00 AM EET 6:18 PM EET
Astronomical Twilight 5:29 AM EET 6:49 PM EET
Moon 12:40 AM EET (11/8) 1:45 PM EET (11/8)
Length of Visible Light 11h 15m
Length of Day
10h 20m
Waning Crescent, 36% of the Moon is Illuminated
Nov 8
Waning Crescent
Nov 14
New
Nov 20
First Quarter
Nov 28
Full
Dec 6
Last Quarter

Hourly Weather History & Observations

Time (EET) Temp. Dew Point Humidity Pressure Visibility Wind Dir Wind Speed Gust Speed Precip Events Conditions
12:50 AM 60.8 °F 53.6 °F 77% 29.95 in 6.2 mi North 12.7 mph 24.2 mph N/A   Mostly Cloudy
1:50 AM 59.0 °F 51.8 °F 77% 29.95 in 6.2 mi NW 16.1 mph 27.6 mph N/A   Mostly Cloudy
2:50 AM 59.0 °F 51.8 °F 77% 29.95 in 6.2 mi NW 15.0 mph 28.8 mph N/A Rain Light Rain
3:50 AM 57.2 °F 50.0 °F 77% 29.98 in 5.6 mi NW 13.8 mph 27.6 mph N/A   Drizzle
4:50 AM 57.2 °F 50.0 °F 77% 30.01 in 5.6 mi NNW 13.8 mph 25.3 mph N/A   Drizzle
5:50 AM 55.4 °F 48.2 °F 77% 30.01 in 5.6 mi NW 10.4 mph - N/A   Drizzle
6:20 AM 55.4 °F 48.2 °F 77% 30.01 in 5.6 mi NW 12.7 mph 24.2 mph N/A   Drizzle
6:50 AM 55.4 °F 48.2 °F 77% 30.04 in 5.0 mi NW 11.5 mph - N/A   Drizzle
7:20 AM 55.4 °F 48.2 °F 77% 30.04 in 5.0 mi NW 12.7 mph 26.5 mph N/A   Drizzle
7:50 AM 55.4 °F 48.2 °F 77% 30.06 in 5.0 mi WNW 12.7 mph 24.2 mph N/A   Drizzle
8:20 AM 53.6 °F 46.4 °F 77% 30.06 in 5.0 mi NW 17.3 mph 29.9 mph N/A   Drizzle
8:50 AM 53.6 °F 46.4 °F 77% 30.09 in 5.6 mi NW 16.1 mph 27.6 mph N/A   Overcast
9:20 AM 53.6 °F 46.4 °F 77% 30.09 in 6.2 mi NNW 18.4 mph 29.9 mph N/A   Overcast
9:50 AM 53.6 °F 46.4 °F 77% 30.09 in 6.2 mi NNW 15.0 mph 26.5 mph N/A   Overcast
10:20 AM 55.4 °F 48.2 °F 77% 30.09 in 6.2 mi NW 16.1 mph 28.8 mph N/A   Overcast
10:50 AM 55.4 °F 46.4 °F 72% 30.09 in 6.2 mi NW 13.8 mph 26.5 mph N/A   Overcast
11:20 AM 57.2 °F 46.4 °F 67% 30.09 in 6.2 mi NW 15.0 mph 28.8 mph N/A   Overcast
11:50 AM 55.4 °F 44.6 °F 67% 30.12 in 6.2 mi NW 13.8 mph 25.3 mph N/A   Overcast
12:20 PM 57.2 °F 44.6 °F 63% 30.12 in 6.2 mi NW 19.6 mph 35.7 mph N/A   Overcast
12:50 PM 55.4 °F 46.4 °F 72% 30.09 in 6.2 mi NNW 19.6 mph 31.1 mph N/A   Mostly Cloudy
1:20 PM 57.2 °F 46.4 °F 67% 30.09 in 6.2 mi NNW 19.6 mph 31.1 mph N/A   Mostly Cloudy
1:50 PM 57.2 °F 46.4 °F 67% 30.06 in 6.2 mi NNW 20.7 mph 41.4 mph N/A   Mostly Cloudy
2:20 PM 57.2 °F 46.4 °F 67% 30.06 in 6.2 mi NNW 18.4 mph 29.9 mph N/A   Mostly Cloudy
2:50 PM 57.2 °F 44.6 °F 63% 30.06 in 6.2 mi NNW 21.9 mph 36.8 mph N/A   Mostly Cloudy
3:20 PM 57.2 °F 44.6 °F 63% 30.06 in 6.2 mi NNW 26.5 mph 38.0 mph N/A   Mostly Cloudy
3:50 PM 57.2 °F 44.6 °F 63% 30.06 in 6.2 mi NNW 27.6 mph 42.6 mph N/A   Scattered Clouds
4:20 PM 57.2 °F 44.6 °F 63% 30.06 in 6.2 mi NNW 18.4 mph 29.9 mph N/A   Scattered Clouds
4:50 PM 57.2 °F 42.8 °F 59% 30.06 in 6.2 mi NNW 24.2 mph 35.7 mph N/A   Scattered Clouds
5:20 PM 57.2 °F 42.8 °F 59% 30.06 in 6.2 mi NNW 18.4 mph 35.7 mph N/A   Scattered Clouds
5:50 PM 57.2 °F 41.0 °F 55% 30.06 in 6.2 mi NNW 18.4 mph 33.4 mph N/A   Scattered Clouds
6:20 PM 57.2 °F 41.0 °F 55% 30.06 in 6.2 mi NNW 16.1 mph 27.6 mph N/A   Scattered Clouds
6:50 PM 57.2 °F 41.0 °F 55% 30.09 in 6.2 mi NNW 20.7 mph 33.4 mph N/A   Partly Cloudy
7:20 PM 57.2 °F 41.0 °F 55% 30.09 in 6.2 mi NW 9.2 mph - N/A   Partly Cloudy
7:50 PM 57.2 °F 41.0 °F 55% 30.09 in 6.2 mi NW 11.5 mph - N/A   Partly Cloudy
8:20 PM 57.2 °F 39.2 °F 51% 30.09 in 6.2 mi NW 8.1 mph - N/A   Partly Cloudy
8:50 PM 57.2 °F 39.2 °F 51% 30.12 in 6.2 mi WNW 12.7 mph - N/A   Partly Cloudy
9:20 PM 57.2 °F 37.4 °F 48% 30.12 in 6.2 mi WNW 10.4 mph - N/A   Partly Cloudy
9:50 PM 55.4 °F 39.2 °F 54% 30.09 in 6.2 mi NW 12.7 mph - N/A   Partly Cloudy
10:20 PM 55.4 °F 39.2 °F 54% 30.09 in 6.2 mi NNW 12.7 mph - N/A   Partly Cloudy
10:50 PM 55.4 °F 37.4 °F 51% 30.12 in 6.2 mi NW 9.2 mph - N/A   Partly Cloudy
11:50 PM 55.4 °F 37.4 °F 51% 30.09 in 6.2 mi NW 13.8 mph 25.3 mph N/A   Partly Cloudy